Tucson, AZ

6:43 AM MST on July 22, 2017 (GMT -0700)
Tucson International

Weather History for KTUS - February, 2013

Change the Weather History Date:

Monday, February 11, 2013

  Actual Average Record
Temperature  
Mean Temperature 42 °F 55 °F  
Max Temperature 54 °F 68 °F 85 °F (2016)
Min Temperature 29 °F 42 °F 22 °F (1933)
Degree Days  
Heating Degree Days 23 10  
Month to date heating degree days 122 118  
Since 1 July heating degree days 1006 1112  
Cooling Degree Days 0 0  
Month to date cooling degree days 0 0  
Year to date cooling degree days 0 1  
Moisture  
Dew Point 32 °F    
Average Humidity 68    
Maximum Humidity 100    
Minimum Humidity 36    
Precipitation  
Precipitation 0.26 in 0.03 in 1.22 in (1950)
Month to date precipitation 0.30 0.35  
Year to date precipitation 1.11 1.29  
Snow  
Snow 0.00 in - - ()
Month to date snowfall 0.0  
Snow Depth 0.00 in    
Sea Level Pressure  
Sea Level Pressure 30.07 in    
Wind  
Wind Speed 7 mph (WSW)    
Max Wind Speed 18 mph    
Max Gust Speed 23 mph    
Visibility 9 miles    
Events Rain    
T = Trace of Precipitation, MM = Missing Value Source: NWS Daily Summary

Daily Weather History Graph

Daily Weather History Graph

Search for Another Location

Airport or City:

Trip Planner

Search our weather history database for the weather conditions in past years. The results will help you decide how hot, cold, wet, or windy it might be!

Date:

Astronomy

Feb. 11, 2013 Rise Set
Actual Time 7:09 AM MST 6:06 PM MST
Civil Twilight 6:44 AM MST 6:32 PM MST
Nautical Twilight 6:15 AM MST 7:00 PM MST
Astronomical Twilight 5:46 AM MST 7:29 PM MST
Moon 7:44 AM MST (2/11) 7:56 PM MST (2/11)
Length of Visible Light 11h 47m
Length of Day
10h 57m
Waxing Crescent, 3% of the Moon is Illuminated
Feb 11
Waxing Crescent
Feb 17
First Quarter
Feb 25
Full
Mar 4
Last Quarter
Mar 11
New

Hourly Weather History & Observations

Time (MST) Temp. Windchill Dew Point Humidity Pressure Visibility Wind Dir Wind Speed Gust Speed Precip Events Conditions
12:53 AM 37.9 °F 33.5 °F 23.0 °F 55% 29.97 in 10.0 mi SSE 5.8 mph - N/A   Clear
1:53 AM 37.9 °F 33.5 °F 23.0 °F 55% 29.96 in 10.0 mi SE 5.8 mph - N/A   Clear
2:53 AM 35.1 °F 32.2 °F 23.0 °F 61% 29.96 in 10.0 mi SSE 3.5 mph - N/A   Clear
3:53 AM 33.1 °F - 23.0 °F 66% 29.96 in 10.0 mi Calm Calm - N/A   Clear
4:53 AM 30.2 °F 26.7 °F 23.0 °F 75% 29.97 in 10.0 mi South 3.5 mph - N/A   Clear
5:53 AM 30.0 °F 25.2 °F 21.9 °F 72% 29.97 in 10.0 mi SSW 4.6 mph - N/A   Clear
6:53 AM 32.0 °F 25.6 °F 23.0 °F 69% 29.99 in 10.0 mi SSE 6.9 mph - N/A   Clear
7:53 AM 34.0 °F 29.8 °F 23.0 °F 64% 30.01 in 10.0 mi South 4.6 mph - N/A   Clear
8:53 AM 42.1 °F 37.7 °F 23.0 °F 47% 30.02 in 10.0 mi SSE 6.9 mph - N/A   Clear
9:53 AM 46.0 °F 43.9 °F 24.1 °F 42% 30.03 in 10.0 mi SSE 4.6 mph - N/A   Mostly Cloudy
10:53 AM 50.0 °F - 25.0 °F 38% 30.02 in 10.0 mi SW 9.2 mph - N/A   Overcast
11:53 AM 50.0 °F - 27.0 °F 41% 30.01 in 10.0 mi SW 5.8 mph 19.6 mph N/A   Overcast
12:53 PM 52.0 °F - 27.0 °F 38% 29.99 in 10.0 mi SSW 15.0 mph 23.0 mph N/A   Overcast
1:49 PM 42.8 °F 35.1 °F 35.6 °F 76% 30.03 in 7.0 mi WNW 16.1 mph - 0.00 in Rain Light Rain
1:53 PM 42.1 °F 34.5 °F 35.1 °F 76% 30.03 in 4.0 mi NW 15.0 mph - 0.01 in Rain Rain
2:20 PM 39.9 °F 33.4 °F 36.0 °F 86% 30.05 in 2.5 mi NW 10.4 mph - 0.05 in Rain Rain
2:31 PM 39.9 °F 33.9 °F 36.0 °F 86% 30.05 in 5.0 mi NNW 9.2 mph - 0.08 in Rain Light Rain
2:48 PM 39.2 °F 34.2 °F 35.6 °F 87% 30.05 in 3.0 mi NNW 6.9 mph - 0.11 in Rain Rain
2:53 PM 39.0 °F 33.4 °F 36.0 °F 89% 30.05 in 3.0 mi North 8.1 mph - 0.12 in Rain Rain
3:00 PM 39.9 °F 33.4 °F 36.0 °F 86% 30.05 in 4.0 mi North 10.4 mph - 0.01 in Rain Rain
3:44 PM 37.9 °F 31.5 °F 36.0 °F 93% 30.06 in 6.0 mi NW 9.2 mph - 0.04 in Rain Light Rain
3:53 PM 37.9 °F 31.5 °F 36.0 °F 93% 30.06 in 6.0 mi WNW 9.2 mph - 0.05 in Rain Light Rain
4:25 PM 37.9 °F 32.1 °F 35.1 °F 89% 30.06 in 10.0 mi NW 8.1 mph - 0.02 in Rain Light Rain
4:33 PM 37.9 °F 32.7 °F 35.1 °F 89% 30.06 in 10.0 mi NNW 6.9 mph - 0.02 in   Overcast
4:42 PM 37.9 °F 34.4 °F 36.0 °F 93% 30.06 in 10.0 mi NW 4.6 mph - 0.02 in Rain Light Rain
4:53 PM 37.9 °F 34.4 °F 36.0 °F 93% 30.07 in 10.0 mi NNW 4.6 mph - 0.02 in Rain Light Rain
5:22 PM 37.9 °F 33.5 °F 36.0 °F 93% 30.07 in 8.0 mi SW 5.8 mph - 0.02 in Rain Light Rain
5:53 PM 37.0 °F 31.0 °F 36.0 °F 96% 30.09 in 10.0 mi South 8.1 mph - 0.03 in Rain Light Rain
6:49 PM 35.6 °F 27.5 °F 35.6 °F 100% 30.10 in 10.0 mi SSW 11.5 mph - 0.00 in   Overcast
6:53 PM 36.0 °F 29.0 °F 35.1 °F 97% 30.12 in 10.0 mi SSW 9.2 mph - 0.00 in   Overcast
7:39 PM 37.0 °F 29.8 °F 35.1 °F 93% 30.12 in 8.0 mi West 10.4 mph - 0.02 in Rain Light Rain
7:46 PM 37.0 °F 29.3 °F 35.1 °F 93% 30.12 in 10.0 mi West 11.5 mph - 0.02 in Rain Light Rain
7:53 PM 36.0 °F 29.0 °F 35.1 °F 97% 30.13 in 10.0 mi West 9.2 mph - 0.03 in Rain Light Rain
8:01 PM 36.0 °F 28.5 °F 34.0 °F 93% 30.12 in 10.0 mi West 10.4 mph - 0.00 in Rain Light Rain
8:22 PM 36.0 °F 29.0 °F 35.1 °F 97% 30.13 in 10.0 mi West 9.2 mph - 0.00 in   Overcast
8:53 PM 35.1 °F 30.1 °F 34.0 °F 96% 30.13 in 10.0 mi West 5.8 mph - 0.00 in   Mostly Cloudy
9:00 PM 35.1 °F 31.0 °F 35.1 °F 100% 30.14 in 10.0 mi West 4.6 mph - N/A   Overcast
9:32 PM 36.0 °F 33.3 °F 35.1 °F 97% 30.14 in 10.0 mi SW 3.5 mph - N/A   Overcast
9:49 PM 35.6 °F 31.7 °F 35.6 °F 100% 30.15 in 10.0 mi West 4.6 mph - N/A   Overcast
9:53 PM 36.0 °F 30.3 °F 35.1 °F 97% 30.14 in 10.0 mi West 6.9 mph - N/A   Overcast
10:46 PM 36.0 °F 33.3 °F 35.1 °F 97% 30.16 in 10.0 mi SSW 3.5 mph - N/A   Overcast
10:53 PM 36.0 °F - 35.1 °F 97% 30.14 in 10.0 mi Calm Calm - N/A   Mostly Cloudy
11:07 PM 36.0 °F - 35.1 °F 97% 30.15 in 10.0 mi Calm Calm - N/A   Scattered Clouds
11:14 PM 36.0 °F - 35.1 °F 97% 30.15 in 10.0 mi Calm Calm - N/A   Mostly Cloudy
11:21 PM 36.0 °F 32.1 °F 35.1 °F 97% 30.16 in 10.0 mi SE 4.6 mph - N/A   Scattered Clouds
11:29 PM 36.0 °F 31.1 °F 35.1 °F 97% 30.16 in 10.0 mi SSE 5.8 mph - N/A   Mostly Cloudy
11:38 PM 36.0 °F 31.1 °F 35.1 °F 97% 30.17 in 10.0 mi SSE 5.8 mph - N/A   Mostly Cloudy
11:53 PM 36.0 °F 33.3 °F 35.1 °F 97% 30.16 in 10.0 mi South 3.5 mph - N/A   Overcast